Content
SEND FEEDBACK

Daily
Averages
Monthly
Summary
United States of America

FAYETTEVILLE, TENNESSEE


Home > North America > United States > Tennessee
Elevation: 700 feet     Latitude: 35 10N     Longitude: 086 33W

WEATHER
 
SELECT A DAY
Number of Records: 297,994;   Date Range: 4/22/02 - 7/29/14
 
SHARE

PRINT THIS DATA

[ ← Previous Day ]
WEATHER ALMANAC - OCTOBER 14, 2013
[ Next Day → ]
[ °C ]   °F
Weather ElementAverageHighLow
Temperature66 °F78.8 °F (2:15 pm)53.6 °F (6:35 am)
Dewpoint55 °F59 °F (8:15 am)51.8 °F (1:55 am)
Humidity71.5 %100 % (3:15 am)39 % (2:15 pm)
Barometer30.17 in30.24 in (7:55 am)30.10 in (4:15 pm)
Wind Speed1.4 mph8.1 mph (10:55 am)
Weather ElementAverage
Visibility8.8 mi
Wind DirectionENE (72 °)

Weather ElementTotal
Precipitation---
Cooling Degree Days1.2 (Base 65)
Growing Degree Days16.2 (Base 50)
Averaged from 70 records on October 14, 2013
WEATHER CONDITIONS BREAKOUT
WIND DIRECTION BREAKOUT
WEATHER BY HOUR - OCTOBER 14, 2013
[ °C ]   °F
Local TimeTemperatureDewpointHumidityBarometerVisibilityWind DirectionWind SpeedGust SpeedPrecipitationEventsConditions
12:35 AM59.0 °F53.6 °F82 %30.20 in10.0 miNorth (360°)3.5 mphClear
12:55 AM59.0 °F53.6 °F82 %30.20 in10.0 miCalmClear
1:15 AM59.0 °F53.6 °F82 %30.19 in10.0 miCalmClear
1:35 AM57.2 °F53.6 °F88 %30.20 in10.0 miCalmClear
1:55 AM55.4 °F51.8 °F88 %30.20 in10.0 miCalmClear
2:15 AM57.2 °F53.6 °F88 %30.20 in10.0 miNW (320°)3.5 mphClear
2:35 AM55.4 °F53.6 °F94 %30.20 in7.0 miNNW (340°)3.5 mphClear
2:55 AM55.4 °F53.6 °F94 %30.20 in7.0 miNorth (350°)4.6 mphClear
3:15 AM55.4 °F55.4 °F100 %30.20 in7.0 miNNW (340°)4.6 mphClear
3:35 AM57.2 °F55.4 °F94 %30.20 in10.0 miNorth (350°)3.5 mphClear
3:55 AM55.4 °F53.6 °F94 %30.20 in7.0 miNorth (350°)4.6 mphClear
4:15 AM57.2 °F55.4 °F94 %30.21 in7.0 miCalmClear
4:35 AM55.4 °F55.4 °F100 %30.21 in7.0 miCalmClear
4:55 AM55.4 °F55.4 °F100 %30.21 in7.0 miCalmClear
5:15 AM55.4 °F55.4 °F100 %30.21 in5.0 miCalmClear
5:35 AM55.4 °F55.4 °F100 %30.21 in4.0 miCalmClear
5:55 AM55.4 °F55.4 °F100 %30.21 in4.0 miCalmClear
6:15 AM55.4 °F53.6 °F94 %30.22 in4.0 miCalmClear
6:35 AM53.6 °F53.6 °F100 %30.22 in2.5 miCalmClear
6:55 AM53.6 °F51.8 °F94 %30.22 in1.5 miNorth (360°)4.6 mphMist
7:15 AM55.4 °F53.6 °F94 %30.23 in4.0 miCalmClear
7:35 AM55.4 °F55.4 °F100 %30.23 in5.0 miCalmClear
7:55 AM57.2 °F55.4 °F94 %30.24 in5.0 miCalmClear
8:15 AM59.0 °F59.0 °F100 %30.24 in7.0 miCalmClear
8:35 AM60.8 °F55.4 °F82 %30.24 in10.0 miCalmClear
8:55 AM60.8 °F55.4 °F82 %30.24 in10.0 miCalmClear
9:15 AM62.6 °F55.4 °F77 %30.24 in10.0 miCalmClear
9:35 AM66.2 °F55.4 °F68 %30.24 in10.0 miCalmClear
9:55 AM69.8 °F55.4 °F60 %30.23 in10.0 miCalmClear
10:15 AM69.8 °F55.4 °F60 %30.23 in10.0 miCalmClear
10:35 AM71.6 °F53.6 °F53 %30.22 in10.0 miCalmClear
10:55 AM73.4 °F55.4 °F53 %30.22 in10.0 miEast (100°)8.1 mphClear
11:15 AM73.4 °F55.4 °F53 %30.21 in10.0 miEast (100°)3.5 mphClear
11:35 AM73.4 °F53.6 °F50 %30.21 in10.0 miSSE (160°)3.5 mphScattered Clouds
11:55 AM75.2 °F53.6 °F47 %30.20 in10.0 miCalmScattered Clouds
12:15 PM77.0 °F53.6 °F44 %30.19 in10.0 miCalmScattered Clouds
12:35 PM73.4 °F53.6 °F50 %30.17 in10.0 miCalmScattered Clouds
12:55 PM77.0 °F53.6 °F44 %30.16 in10.0 miNE (40°)3.5 mphScattered Clouds
1:15 PM77.0 °F51.8 °F41 %30.15 in10.0 miNE (40°)4.6 mphScattered Clouds
1:35 PM77.0 °F51.8 °F41 %30.14 in10.0 miENE (70°)3.5 mphClear
1:55 PM77.0 °F51.8 °F41 %30.13 in10.0 miCalmClear
2:15 PM78.8 °F51.8 °F39 %30.12 in10.0 miCalmScattered Clouds
2:35 PM78.8 °F51.8 °F39 %30.11 in10.0 miENE (60°)4.6 mphScattered Clouds
2:55 PM77.0 °F51.8 °F41 %30.11 in10.0 miCalmScattered Clouds
3:15 PM77.0 °F51.8 °F41 %30.11 in10.0 miCalmMostly Cloudy
3:35 PM78.8 °F51.8 °F39 %30.11 in10.0 miNorth (350°)5.8 mphMostly Cloudy
3:55 PM77.0 °F51.8 °F41 %30.11 in10.0 miCalmScattered Clouds
4:15 PM78.8 °F51.8 °F39 %30.10 in10.0 miCalmClear
4:35 PM78.8 °F51.8 °F39 %30.10 in10.0 miNW (320°)4.6 mphClear
4:55 PM78.8 °F51.8 °F39 %30.10 in10.0 miCalmClear
5:15 PM78.8 °F51.8 °F39 %30.11 in10.0 miNNW (330°)3.5 mphClear
5:35 PM77.0 °F55.4 °F47 %30.10 in10.0 miCalmClear
6:15 PM71.6 °F55.4 °F57 %30.10 in2.5 miCalmHaze
6:35 PM69.8 °F59.0 °F68 %30.10 in10.0 miCalmClear
6:55 PM68.0 °F59.0 °F73 %30.10 in10.0 miCalmClear
7:15 PM68.0 °F57.2 °F68 %30.11 in10.0 miCalmClear
7:35 PM66.2 °F59.0 °F78 %30.11 in10.0 miCalmClear
7:55 PM64.4 °F59.0 °F83 %30.11 in10.0 miCalmClear
8:15 PM64.4 °F59.0 °F83 %30.11 in10.0 miCalmClear
8:35 PM64.4 °F59.0 °F83 %30.12 in10.0 miCalmClear
8:55 PM64.4 °F59.0 °F83 %30.12 in10.0 miESE (120°)3.5 mphClear
9:15 PM64.4 °F59.0 °F83 %30.12 in10.0 miCalmClear
9:35 PM64.4 °F59.0 °F83 %30.13 in10.0 miCalmScattered Clouds
9:55 PM62.6 °F59.0 °F88 %30.13 in10.0 miCalmScattered Clouds
10:15 PM64.4 °F59.0 °F83 %30.14 in10.0 miCalmScattered Clouds
10:35 PM66.2 °F59.0 °F78 %30.14 in10.0 miSE (140°)3.5 mphMostly Cloudy
10:55 PM68.0 °F57.2 °F68 %30.15 in10.0 miSSE (160°)4.6 mphMostly Cloudy
11:15 PM68.0 °F57.2 °F68 %30.14 in10.0 miSE (140°)5.8 mphMostly Cloudy
11:35 PM68.0 °F57.2 °F68 %30.14 in10.0 miSE (140°)3.5 mphOvercast
11:55 PM68.0 °F55.4 °F64 %30.14 in10.0 miCalmScattered Clouds
Hourly data recorded from KMDQ, located miles away from Fayetteville, Tennessee







STORIES FROM OUR PARTNERS